NWS2103 UWWW-URSS

Flight info

Callsign NWS2103
Flight time 1h 59m
Altitude 36000
Route NIDOG2Y NIDOG T790 RORNA T789 DAFOS P135 KR G900 OBABI/K0820F370 G900 ER B145 SUDIR N166 ADNET W79 BINOL BINOL1K
Aircraft A21N/M-SDE2E3FGHIRWXY/LB1

Departure

Time 2026-05-05 09:45
Airport Kurumoch International Airport (UWWW)

Arrival

Time 2026-05-05 11:45
Airport Sochi International Airport (URSS)
Time Latitude Longitude Altitude Speed Heading
2026-05-05 09:18 53.51172 50.15936 452 ft 0 kts 332°
2026-05-05 09:37 53.51171 50.15937 452 ft 2 kts 332°
2026-05-05 09:37 53.51149 50.15956 452 ft 4 kts 329°
2026-05-05 09:37 53.51126 50.15974 452 ft 4 kts 341°
2026-05-05 09:38 53.51101 50.15986 452 ft 3 kts 346°
2026-05-05 09:38 53.51098 50.15988 452 ft 2 kts 346°
2026-05-05 09:40 53.51106 50.15992 452 ft 2 kts 27°
2026-05-05 09:40 53.51118 50.16024 452 ft 4 kts 66°
2026-05-05 09:41 53.51132 50.16076 452 ft 6 kts 66°
2026-05-05 09:41 53.51153 50.16146 452 ft 8 kts 61°
2026-05-05 09:41 53.51182 50.16231 452 ft 9 kts 61°
2026-05-05 09:41 53.51215 50.16335 452 ft 11 kts 61°
2026-05-05 09:42 53.51255 50.16457 452 ft 13 kts 61°
2026-05-05 09:42 53.51299 50.16595 452 ft 14 kts 62°
2026-05-05 09:42 53.51337 50.16704 452 ft 10 kts 46°
2026-05-05 09:42 53.51405 50.16693 452 ft 11 kts 340°
2026-05-05 09:43 53.51484 50.16644 452 ft 13 kts 340°
2026-05-05 09:43 53.51575 50.16591 452 ft 15 kts 341°
2026-05-05 09:43 53.51667 50.16536 452 ft 10 kts 341°
2026-05-05 09:43 53.51739 50.16536 452 ft 12 kts 26°
2026-05-05 09:44 53.51799 50.16636 452 ft 13 kts 65°
2026-05-05 09:44 53.51823 50.16780 455 ft 9 kts 93°
2026-05-05 09:44 53.51794 50.16882 456 ft 11 kts 145°
2026-05-05 09:44 53.51717 50.16931 456 ft 13 kts 161°
2026-05-05 09:45 53.51550 50.17029 456 ft 57 kts 160°
2026-05-05 09:45 53.50947 50.17386 448 ft 124 kts 160°
2026-05-05 09:45 53.49967 50.17968 513 ft 165 kts 162°
2026-05-05 09:45 53.48937 50.18603 1178 ft 159 kts 161°
2026-05-05 09:46 53.47893 50.19274 1772 ft 162 kts 162°
2026-05-05 09:46 53.46811 50.19910 2407 ft 168 kts 163°
2026-05-05 09:46 53.45692 50.20559 3145 ft 172 kts 163°
2026-05-05 09:46 53.44559 50.21229 3845 ft 176 kts 162°
2026-05-05 09:47 53.43370 50.21926 4477 ft 187 kts 164°
2026-05-05 09:47 53.42065 50.22560 5089 ft 202 kts 171°
2026-05-05 09:47 53.40661 50.22293 5649 ft 211 kts 206°
2026-05-05 09:47 53.39621 50.20592 6333 ft 214 kts 242°
2026-05-05 09:48 53.39090 50.18232 7048 ft 220 kts 252°
2026-05-05 09:48 53.38581 50.15698 7528 ft 242 kts 251°
2026-05-05 09:48 53.37999 50.12908 7899 ft 265 kts 251°
2026-05-05 09:48 53.37363 50.09899 8427 ft 280 kts 251°
2026-05-05 09:49 53.36703 50.06784 9216 ft 287 kts 251°
2026-05-05 09:49 53.36027 50.03616 10044 ft 292 kts 251°
2026-05-05 09:49 53.35321 50.00314 10496 ft 312 kts 251°
2026-05-05 09:49 53.34564 49.96779 10823 ft 334 kts 251°
2026-05-05 09:50 53.34031 49.94310 11026 ft 348 kts 251°
2026-05-05 09:50 53.33185 49.90393 11313 ft 368 kts 251°
2026-05-05 09:50 53.32296 49.86266 11583 ft 387 kts 252°
2026-05-05 09:50 53.31666 49.81812 11865 ft 401 kts 263°
2026-05-05 09:51 53.31357 49.77135 12336 ft 407 kts 265°
2026-05-05 09:51 53.31075 49.72413 12940 ft 410 kts 265°
2026-05-05 09:51 53.30690 49.66106 13779 ft 413 kts 265°
2026-05-05 09:51 53.30489 49.62868 14126 ft 415 kts 265°
2026-05-05 09:52 53.30186 49.58049 14601 ft 418 kts 265°
2026-05-05 09:52 53.29875 49.53198 15117 ft 422 kts 265°
2026-05-05 09:52 53.29555 49.48309 15646 ft 425 kts 265°
2026-05-05 09:52 53.29229 49.43390 16127 ft 427 kts 265°
2026-05-05 09:53 53.28899 49.38446 16574 ft 429 kts 265°
2026-05-05 09:53 53.28566 49.33483 17009 ft 431 kts 265°
2026-05-05 09:53 53.28228 49.28487 17433 ft 434 kts 265°
2026-05-05 09:53 53.27878 49.23466 17848 ft 437 kts 265°
2026-05-05 09:54 53.27526 49.18411 18251 ft 439 kts 265°
2026-05-05 09:54 53.27173 49.13329 18627 ft 442 kts 265°
2026-05-05 09:54 53.26823 49.08285 18997 ft 444 kts 265°
2026-05-05 09:54 53.26463 49.03152 19391 ft 447 kts 264°
2026-05-05 09:55 53.25855 48.98048 19813 ft 451 kts 255°
2026-05-05 09:55 53.24845 48.93075 20222 ft 453 kts 252°
2026-05-05 09:55 53.23756 48.88116 20626 ft 456 kts 251°
2026-05-05 09:55 53.22656 48.83138 21063 ft 458 kts 251°
2026-05-05 09:56 53.21557 48.78135 21556 ft 461 kts 252°
2026-05-05 09:56 53.20453 48.73096 22019 ft 464 kts 252°
2026-05-05 09:56 53.19343 48.68030 22440 ft 466 kts 252°
2026-05-05 09:56 53.18224 48.62940 22862 ft 469 kts 252°
2026-05-05 09:57 53.17093 48.57820 23273 ft 472 kts 252°
2026-05-05 09:57 53.15957 48.52668 23668 ft 475 kts 252°
2026-05-05 09:57 53.14814 48.47495 24017 ft 477 kts 252°
2026-05-05 09:57 53.13665 48.42296 24374 ft 479 kts 251°
2026-05-05 09:58 53.12512 48.37102 24830 ft 478 kts 251°
2026-05-05 09:58 53.11356 48.31921 25267 ft 477 kts 251°
2026-05-05 09:58 53.10168 48.26768 25726 ft 476 kts 250°
2026-05-05 09:58 53.08949 48.21650 26165 ft 476 kts 250°
2026-05-05 09:59 53.07727 48.16545 26634 ft 474 kts 249°
2026-05-05 09:59 53.06507 48.11470 27141 ft 472 kts 249°
2026-05-05 09:59 53.05291 48.06411 27607 ft 470 kts 249°
2026-05-05 09:59 53.04077 48.01373 28043 ft 470 kts 249°
2026-05-05 10:00 53.02861 47.96339 28448 ft 469 kts 249°
2026-05-05 10:00 53.01645 47.91317 28876 ft 469 kts 249°
2026-05-05 10:00 53.00426 47.86297 29298 ft 468 kts 249°
2026-05-05 10:00 52.99223 47.81357 29700 ft 468 kts 249°
2026-05-05 10:01 52.98004 47.76353 30072 ft 468 kts 249°
2026-05-05 10:01 52.96783 47.71356 30439 ft 467 kts 248°
2026-05-05 10:01 52.95565 47.66380 30842 ft 465 kts 249°
2026-05-05 10:01 52.94328 47.61344 31168 ft 465 kts 249°
2026-05-05 10:02 52.93127 47.56455 31485 ft 465 kts 249°
2026-05-05 10:02 52.91907 47.51496 31817 ft 464 kts 249°
2026-05-05 10:02 52.90683 47.46554 32189 ft 463 kts 249°
2026-05-05 10:02 52.89461 47.41622 32500 ft 463 kts 249°
2026-05-05 10:03 52.88244 47.36694 32801 ft 463 kts 249°
2026-05-05 10:03 52.87030 47.31768 33130 ft 461 kts 249°
2026-05-05 10:03 52.85809 47.26858 33412 ft 461 kts 248°
2026-05-05 10:03 52.84586 47.21953 33669 ft 462 kts 248°
2026-05-05 10:04 52.83299 47.17086 33933 ft 462 kts 243°
2026-05-05 10:04 52.81560 47.12634 34152 ft 462 kts 231°
2026-05-05 10:04 52.79270 47.08933 34336 ft 462 kts 217°
2026-05-05 10:04 52.76550 47.06126 34519 ft 461 kts 208°
2026-05-05 10:05 52.73698 47.03694 34703 ft 461 kts 207°
2026-05-05 10:05 52.70838 47.01293 34897 ft 461 kts 207°
2026-05-05 10:05 52.67991 46.98867 35121 ft 460 kts 207°
2026-05-05 10:05 52.65159 46.96429 35345 ft 458 kts 207°
2026-05-05 10:06 52.62339 46.93988 35555 ft 457 kts 207°
2026-05-05 10:06 52.59526 46.91553 35742 ft 457 kts 207°
2026-05-05 10:06 52.56716 46.89126 35910 ft 456 kts 207°
2026-05-05 10:06 52.53907 46.86704 36008 ft 456 kts 207°
2026-05-05 10:07 52.48300 46.81880 35985 ft 454 kts 207°
2026-05-05 10:07 52.42690 46.77068 35971 ft 455 kts 207°
2026-05-05 10:08 52.37079 46.72262 35976 ft 455 kts 207°
2026-05-05 10:08 52.31470 46.67474 35977 ft 455 kts 207°
2026-05-05 10:09 52.25859 46.62695 35977 ft 455 kts 207°
2026-05-05 10:09 52.20235 46.57920 35977 ft 456 kts 207°
2026-05-05 10:10 52.14622 46.53171 35977 ft 454 kts 207°
2026-05-05 10:10 52.09057 46.48484 35979 ft 453 kts 207°
2026-05-05 10:11 52.03452 46.43780 35976 ft 453 kts 207°
2026-05-05 10:11 51.97848 46.39082 35976 ft 454 kts 207°
2026-05-05 10:12 51.92241 46.34390 35969 ft 453 kts 207°
2026-05-05 10:12 51.86647 46.29726 35966 ft 453 kts 206°
2026-05-05 10:13 51.81045 46.25070 35965 ft 453 kts 207°
2026-05-05 10:13 51.75440 46.20421 35964 ft 453 kts 207°
2026-05-05 10:14 51.69839 46.15790 35964 ft 452 kts 207°
2026-05-05 10:14 51.64230 46.11171 35967 ft 453 kts 207°
2026-05-05 10:15 51.58622 46.06561 35968 ft 453 kts 207°
2026-05-05 10:15 51.53006 46.02127 35973 ft 453 kts 205°
2026-05-05 10:16 51.47281 45.97759 35976 ft 453 kts 205°
2026-05-05 10:16 51.41633 45.93462 35983 ft 452 kts 205°
2026-05-05 10:17 51.35919 45.89121 35987 ft 451 kts 205°
2026-05-05 10:17 51.30285 45.84851 35987 ft 451 kts 205°
2026-05-05 10:18 51.24607 45.80561 35990 ft 451 kts 205°
2026-05-05 10:18 51.18937 45.76299 35990 ft 450 kts 205°
2026-05-05 10:19 51.13273 45.72044 35991 ft 450 kts 205°
2026-05-05 10:19 51.07602 45.67793 35992 ft 450 kts 205°
2026-05-05 10:20 51.02071 45.63155 35993 ft 451 kts 215°
2026-05-05 10:20 50.97119 45.57039 35997 ft 451 kts 218°
2026-05-05 10:21 50.92195 45.50858 35991 ft 451 kts 218°
2026-05-05 10:21 50.87258 45.44731 35991 ft 451 kts 217°
2026-05-05 10:22 50.82217 45.38823 35995 ft 450 kts 216°
2026-05-05 10:22 50.77168 45.32973 35994 ft 449 kts 216°
2026-05-05 10:23 50.72149 45.27170 35995 ft 451 kts 216°
2026-05-05 10:23 50.67090 45.21338 35997 ft 450 kts 216°
2026-05-05 10:24 50.62036 45.15527 35994 ft 450 kts 215°
2026-05-05 10:24 50.56971 45.09716 35997 ft 450 kts 215°
2026-05-05 10:25 50.51904 45.03915 35994 ft 450 kts 215°
2026-05-05 10:25 50.46829 44.98111 35997 ft 451 kts 215°
2026-05-05 10:26 50.41747 44.92327 35997 ft 451 kts 215°
2026-05-05 10:26 50.36668 44.86563 36005 ft 451 kts 215°
2026-05-05 10:27 50.31572 44.80800 36002 ft 452 kts 215°
2026-05-05 10:27 50.26476 44.75047 35999 ft 452 kts 215°
2026-05-05 10:28 50.21375 44.69304 35999 ft 452 kts 215°
2026-05-05 10:28 50.16271 44.63574 36001 ft 452 kts 214°
2026-05-05 10:29 50.11154 44.57846 36001 ft 453 kts 215°
2026-05-05 10:29 50.06023 44.52119 36000 ft 454 kts 214°
2026-05-05 10:30 50.00759 44.46700 36001 ft 454 kts 212°
2026-05-05 10:30 49.95680 44.40855 36003 ft 455 kts 216°
2026-05-05 10:31 49.90590 44.34984 36003 ft 456 kts 214°
2026-05-05 10:31 49.85433 44.29266 36003 ft 456 kts 214°
2026-05-05 10:32 49.80265 44.23576 36002 ft 456 kts 214°
2026-05-05 10:32 49.75092 44.17893 36003 ft 456 kts 214°
2026-05-05 10:33 49.69919 44.12225 36002 ft 456 kts 214°
2026-05-05 10:33 49.64741 44.06565 36004 ft 456 kts 214°
2026-05-05 10:34 49.59565 44.00922 36002 ft 456 kts 214°
2026-05-05 10:34 49.54379 43.95285 36011 ft 458 kts 214°
2026-05-05 10:35 49.49072 43.89856 36004 ft 458 kts 211°
2026-05-05 10:35 49.43655 43.84711 36005 ft 458 kts 211°
2026-05-05 10:36 49.38229 43.79577 36009 ft 458 kts 211°
2026-05-05 10:36 49.32838 43.74483 36012 ft 459 kts 210°
2026-05-05 10:37 49.27384 43.69344 36009 ft 461 kts 210°
2026-05-05 10:37 49.22219 43.63540 36010 ft 461 kts 217°
2026-05-05 10:38 49.17198 43.57446 36009 ft 461 kts 217°
2026-05-05 10:38 49.12159 43.51363 36011 ft 463 kts 217°
2026-05-05 10:39 49.07108 43.45290 36012 ft 462 kts 217°
2026-05-05 10:39 49.02904 43.40250 36012 ft 462 kts 217°
2026-05-05 10:40 48.97844 43.34196 36011 ft 462 kts 217°
2026-05-05 10:40 48.92779 43.28153 36014 ft 463 kts 217°
2026-05-05 10:41 48.87702 43.22121 36015 ft 463 kts 217°
2026-05-05 10:41 48.82621 43.16100 36012 ft 463 kts 217°
2026-05-05 10:42 48.75001 43.07080 36015 ft 464 kts 217°
2026-05-05 10:43 48.69907 43.01073 36013 ft 464 kts 217°
2026-05-05 10:43 48.64809 42.95077 36010 ft 464 kts 216°
2026-05-05 10:44 48.59706 42.89093 36013 ft 464 kts 216°
2026-05-05 10:44 48.54594 42.83123 36013 ft 465 kts 216°
2026-05-05 10:45 48.49466 42.77186 36012 ft 465 kts 215°
2026-05-05 10:45 48.44335 42.71257 36011 ft 465 kts 215°
2026-05-05 10:46 48.39202 42.65338 36010 ft 465 kts 215°
2026-05-05 10:46 48.34032 42.59469 36013 ft 465 kts 212°
2026-05-05 10:47 48.28717 42.54053 36011 ft 465 kts 213°
2026-05-05 10:47 48.23614 42.48062 36011 ft 467 kts 219°
2026-05-05 10:48 48.18625 42.41839 36016 ft 467 kts 216°
2026-05-05 10:48 48.13471 42.35921 36002 ft 467 kts 215°
2026-05-05 10:49 48.08287 42.30067 36003 ft 467 kts 214°
2026-05-05 10:49 48.02967 42.24536 36006 ft 466 kts 212°
2026-05-05 10:50 47.97694 42.18894 36011 ft 467 kts 214°
2026-05-05 10:50 47.92493 42.13071 36011 ft 467 kts 214°
2026-05-05 10:51 47.87410 42.07013 36012 ft 469 kts 218°
2026-05-05 10:51 47.82328 42.00949 36006 ft 468 kts 215°
2026-05-05 10:52 47.77137 41.95124 36016 ft 467 kts 214°
2026-05-05 10:52 47.71934 41.89350 36015 ft 467 kts 214°
2026-05-05 10:53 47.66729 41.83581 36014 ft 467 kts 214°
2026-05-05 10:53 47.61558 41.77856 36025 ft 467 kts 214°
2026-05-05 10:54 47.56350 41.72111 36011 ft 467 kts 214°
2026-05-05 10:54 47.51136 41.66376 36014 ft 467 kts 214°
2026-05-05 10:55 47.45923 41.60652 36018 ft 467 kts 214°
2026-05-05 10:55 47.40711 41.54939 36013 ft 467 kts 214°
2026-05-05 10:56 47.35493 41.49233 36014 ft 467 kts 214°
2026-05-05 10:56 47.30276 41.43541 36013 ft 467 kts 214°
2026-05-05 10:57 47.25054 41.37861 36016 ft 467 kts 214°
2026-05-05 10:57 47.19827 41.32190 36011 ft 467 kts 213°
2026-05-05 10:58 47.14599 41.26536 36011 ft 466 kts 213°
2026-05-05 10:58 47.09371 41.20894 36012 ft 466 kts 213°
2026-05-05 10:59 47.04140 41.15261 36016 ft 467 kts 213°
2026-05-05 10:59 46.98907 41.09628 36011 ft 467 kts 213°
2026-05-05 11:00 46.93675 41.04017 36013 ft 466 kts 213°
2026-05-05 11:00 46.88481 40.98464 36025 ft 466 kts 213°
2026-05-05 11:01 46.83250 40.92879 36015 ft 466 kts 213°
2026-05-05 11:01 46.78017 40.87295 36014 ft 466 kts 214°
2026-05-05 11:02 46.72838 40.81602 36015 ft 466 kts 214°
2026-05-05 11:02 46.67658 40.75919 36019 ft 466 kts 214°
2026-05-05 11:03 46.62464 40.70252 36016 ft 466 kts 214°
2026-05-05 11:03 46.57170 40.64830 36014 ft 464 kts 207°
2026-05-05 11:04 46.51565 40.60183 36022 ft 464 kts 206°
2026-05-05 11:04 46.45956 40.55568 36013 ft 463 kts 206°
2026-05-05 11:05 46.40350 40.50952 36011 ft 463 kts 206°
2026-05-05 11:05 46.34675 40.46571 36003 ft 460 kts 198°
2026-05-05 11:06 46.28602 40.44031 36022 ft 456 kts 191°
2026-05-05 11:06 46.22474 40.41770 36007 ft 454 kts 191°
2026-05-05 11:07 46.16358 40.39470 36001 ft 454 kts 192°
2026-05-05 11:07 46.10242 40.37162 36003 ft 454 kts 192°
2026-05-05 11:08 46.04127 40.34837 36002 ft 455 kts 193°
2026-05-05 11:08 45.98036 40.32327 36002 ft 455 kts 192°
2026-05-05 11:09 45.91920 40.29978 36005 ft 455 kts 192°
2026-05-05 11:09 45.85784 40.27765 35997 ft 453 kts 188°
2026-05-05 11:10 45.79597 40.26011 35996 ft 454 kts 189°
2026-05-05 11:10 45.73658 40.22839 35991 ft 460 kts 204°
2026-05-05 11:11 45.67964 40.18665 35994 ft 460 kts 204°
2026-05-05 11:11 45.62224 40.14640 35992 ft 460 kts 203°
2026-05-05 11:12 45.56468 40.10658 35988 ft 460 kts 203°
2026-05-05 11:12 45.50708 40.06683 35984 ft 460 kts 203°
2026-05-05 11:13 45.44936 40.02756 35990 ft 459 kts 200°
2026-05-05 11:13 45.41915 40.01390 35977 ft 454 kts 188°
2026-05-05 11:13 45.38841 40.00737 35991 ft 452 kts 184°
2026-05-05 11:14 45.32593 39.99759 35974 ft 451 kts 184°
2026-05-05 11:14 45.26353 39.98749 35975 ft 451 kts 184°
2026-05-05 11:15 45.20105 39.97712 35976 ft 453 kts 184°
2026-05-05 11:15 45.13835 39.96671 35968 ft 454 kts 184°
2026-05-05 11:16 45.07565 39.95633 35971 ft 453 kts 184°
2026-05-05 11:16 45.01300 39.94597 35967 ft 453 kts 184°
2026-05-05 11:17 44.95031 39.93564 35964 ft 454 kts 184°
2026-05-05 11:17 44.88756 39.92533 35961 ft 454 kts 184°
2026-05-05 11:18 44.82484 39.91491 35957 ft 454 kts 185°
2026-05-05 11:18 44.76220 39.90376 35965 ft 454 kts 185°
2026-05-05 11:19 44.69954 39.89342 35948 ft 451 kts 185°
2026-05-05 11:19 44.66851 39.88834 35614 ft 449 kts 185°
2026-05-05 11:19 44.63766 39.88332 35328 ft 445 kts 184°
2026-05-05 11:19 44.60696 39.87833 35075 ft 444 kts 184°
2026-05-05 11:20 44.57625 39.87345 34837 ft 444 kts 184°
2026-05-05 11:20 44.54551 39.86855 34608 ft 444 kts 184°
2026-05-05 11:20 44.51483 39.86363 34380 ft 443 kts 184°
2026-05-05 11:20 44.48427 39.85870 34138 ft 441 kts 184°
2026-05-05 11:21 44.45424 39.85385 33930 ft 440 kts 184°
2026-05-05 11:21 44.42396 39.84896 33648 ft 435 kts 184°
2026-05-05 11:21 44.39398 39.84444 33362 ft 431 kts 181°
2026-05-05 11:21 44.36430 39.84463 32949 ft 422 kts 171°
2026-05-05 11:22 44.33576 39.85215 32459 ft 414 kts 161°
2026-05-05 11:22 44.30815 39.86304 31932 ft 411 kts 159°
2026-05-05 11:22 44.28084 39.87434 31423 ft 409 kts 159°
2026-05-05 11:22 44.25363 39.88545 30903 ft 407 kts 159°
2026-05-05 11:23 44.22652 39.89635 30407 ft 404 kts 159°
2026-05-05 11:23 44.19957 39.90709 29911 ft 402 kts 159°
2026-05-05 11:23 44.17279 39.91771 29313 ft 399 kts 159°
2026-05-05 11:23 44.14621 39.92824 28763 ft 395 kts 159°
2026-05-05 11:24 44.11990 39.93863 28252 ft 391 kts 159°
2026-05-05 11:24 44.09388 39.94890 27770 ft 386 kts 159°
2026-05-05 11:24 44.06819 39.95904 27298 ft 382 kts 160°
2026-05-05 11:24 44.04278 39.96907 26818 ft 378 kts 160°
2026-05-05 11:25 44.01753 39.97902 26328 ft 376 kts 160°
2026-05-05 11:25 43.99240 39.98892 25864 ft 374 kts 161°
2026-05-05 11:25 43.96741 39.99875 25396 ft 372 kts 161°
2026-05-05 11:25 43.94257 40.00854 24929 ft 370 kts 162°
2026-05-05 11:26 43.91789 40.01828 24454 ft 368 kts 162°
2026-05-05 11:26 43.89335 40.02796 23976 ft 366 kts 162°
2026-05-05 11:26 43.86890 40.03759 23500 ft 364 kts 162°
2026-05-05 11:26 43.84459 40.04716 22960 ft 362 kts 162°
2026-05-05 11:27 43.82050 40.05662 22477 ft 358 kts 162°
2026-05-05 11:27 43.79667 40.06598 22002 ft 354 kts 162°
2026-05-05 11:27 43.77311 40.07523 21529 ft 350 kts 162°
2026-05-05 11:27 43.74975 40.08438 21052 ft 347 kts 163°
2026-05-05 11:28 43.72669 40.09342 20602 ft 342 kts 163°
2026-05-05 11:28 43.70361 40.10068 20191 ft 339 kts 172°
2026-05-05 11:28 43.68017 40.10035 19788 ft 339 kts 188°
2026-05-05 11:28 43.65750 40.09102 19495 ft 342 kts 201°
2026-05-05 11:29 43.64312 40.08215 19321 ft 342 kts 203°
2026-05-05 11:29 43.62168 40.06821 19006 ft 338 kts 203°
2026-05-05 11:29 43.60053 40.05452 18643 ft 334 kts 203°
2026-05-05 11:29 43.57952 40.04112 18291 ft 331 kts 202°
2026-05-05 11:30 43.55866 40.02792 17867 ft 329 kts 202°
2026-05-05 11:30 43.53791 40.01488 17464 ft 327 kts 202°
2026-05-05 11:30 43.51732 40.00198 17063 ft 324 kts 202°
2026-05-05 11:30 43.49687 39.98918 16689 ft 321 kts 202°
2026-05-05 11:31 43.47659 39.97651 16331 ft 319 kts 202°
2026-05-05 11:31 43.45632 39.96404 15982 ft 318 kts 200°
2026-05-05 11:31 43.43548 39.95384 15271 ft 322 kts 195°
2026-05-05 11:31 43.41332 39.94595 14260 ft 335 kts 191°
2026-05-05 11:32 43.39046 39.93895 13574 ft 337 kts 192°
2026-05-05 11:32 43.36787 39.93086 12970 ft 334 kts 194°
2026-05-05 11:32 43.34565 39.92189 12371 ft 332 kts 196°
2026-05-05 11:32 43.32371 39.91234 11808 ft 329 kts 198°
2026-05-05 11:33 43.30304 39.89992 11522 ft 319 kts 204°
2026-05-05 11:33 43.28317 39.88787 11310 ft 306 kts 201°
2026-05-05 11:33 43.26382 39.87736 11114 ft 293 kts 200°
2026-05-05 11:33 43.24482 39.86782 10702 ft 289 kts 199°
2026-05-05 11:34 43.22586 39.85873 10249 ft 288 kts 198°
2026-05-05 11:34 43.20689 39.84987 9757 ft 288 kts 198°
2026-05-05 11:34 43.18790 39.84112 9238 ft 288 kts 198°
2026-05-05 11:34 43.16895 39.83246 8739 ft 287 kts 198°
2026-05-05 11:35 43.14993 39.82415 8253 ft 287 kts 197°
2026-05-05 11:35 43.13098 39.81621 7920 ft 282 kts 197°
2026-05-05 11:35 43.11227 39.80837 7708 ft 281 kts 197°
2026-05-05 11:35 43.09373 39.80023 7445 ft 278 kts 202°
2026-05-05 11:36 43.07808 39.78488 6824 ft 281 kts 231°
2026-05-05 11:36 43.06903 39.76152 6303 ft 279 kts 256°
2026-05-05 11:36 43.06786 39.73545 5817 ft 274 kts 281°
2026-05-05 11:36 43.07417 39.71127 5334 ft 270 kts 303°
2026-05-05 11:37 43.08654 39.69256 4924 ft 264 kts 324°
2026-05-05 11:37 43.10273 39.68170 4527 ft 257 kts 345°
2026-05-05 11:37 43.12034 39.67959 4172 ft 254 kts
2026-05-05 11:37 43.13719 39.68607 3853 ft 252 kts 25°
2026-05-05 11:38 43.15158 39.69954 3559 ft 250 kts 38°
2026-05-05 11:38 43.16475 39.71492 3264 ft 247 kts 38°
2026-05-05 11:38 43.17775 39.73009 2969 ft 244 kts 39°
2026-05-05 11:38 43.19066 39.74498 2689 ft 241 kts 38°
2026-05-05 11:39 43.20347 39.75962 2419 ft 239 kts 38°
2026-05-05 11:39 43.21626 39.77418 2151 ft 239 kts 37°
2026-05-05 11:39 43.22967 39.78873 1983 ft 243 kts 31°
2026-05-05 11:39 43.24337 39.80035 1956 ft 227 kts 29°
2026-05-05 11:40 43.25687 39.81133 1963 ft 225 kts 27°
2026-05-05 11:40 43.27060 39.82175 1976 ft 226 kts 26°
2026-05-05 11:40 43.28432 39.83205 1987 ft 224 kts 27°
2026-05-05 11:40 43.29739 39.84186 1973 ft 205 kts 26°
2026-05-05 11:41 43.30992 39.85125 1973 ft 204 kts 25°
2026-05-05 11:41 43.32233 39.86054 1986 ft 202 kts 25°
2026-05-05 11:41 43.33445 39.86963 1986 ft 186 kts 25°
2026-05-05 11:41 43.34499 39.87753 1928 ft 164 kts 27°
2026-05-05 11:42 43.35483 39.88491 1760 ft 161 kts 27°
2026-05-05 11:42 43.36461 39.89225 1559 ft 161 kts 26°
2026-05-05 11:42 43.37399 39.89930 1388 ft 145 kts 26°
2026-05-05 11:42 43.38271 39.90584 1206 ft 141 kts 25°
2026-05-05 11:43 43.39135 39.91236 1005 ft 142 kts 25°
2026-05-05 11:43 43.39992 39.91871 825 ft 139 kts 26°
2026-05-05 11:43 43.40843 39.92520 640 ft 139 kts 26°
2026-05-05 11:43 43.41695 39.93159 451 ft 139 kts 26°
2026-05-05 11:44 43.42547 39.93797 294 ft 139 kts 26°
2026-05-05 11:44 43.43396 39.94432 106 ft 139 kts 27°
2026-05-05 11:44 43.44171 39.95014 86 ft 106 kts 27°
2026-05-05 11:44 43.44665 39.95387 91 ft 56 kts 28°
2026-05-05 11:45 43.44862 39.95535 94 ft 8 kts 27°
2026-05-05 11:45 43.44867 39.95538 94 ft 1 kts 28°
2026-05-05 11:45 43.44879 39.95547 94 ft 3 kts 28°
2026-05-05 11:45 43.44905 39.95567 94 ft 5 kts 28°
2026-05-05 11:46 43.44947 39.95581 97 ft 8 kts 348°
2026-05-05 11:46 43.45006 39.95546 96 ft 11 kts 335°
2026-05-05 11:46 43.45059 39.95496 100 ft 10 kts 292°
2026-05-05 11:46 43.45036 39.95398 95 ft 12 kts 244°
2026-05-05 11:47 43.44999 39.95292 93 ft 13 kts 244°
2026-05-05 11:47 43.44959 39.95176 92 ft 12 kts 244°
2026-05-05 11:47 43.44932 39.95100 87 ft 9 kts 244°
2026-05-05 11:47 43.44901 39.95014 88 ft 11 kts 244°
2026-05-05 11:48 43.44830 39.94807 81 ft 13 kts 245°
2026-05-05 11:48 43.44788 39.94683 84 ft 15 kts 245°
2026-05-05 11:48 43.44743 39.94550 82 ft 11 kts 245°
2026-05-05 11:49 43.44714 39.94467 82 ft 10 kts 244°
2026-05-05 11:49 43.44690 39.94397 83 ft 7 kts 244°
2026-05-05 11:49 43.44670 39.94336 81 ft 7 kts 261°
2026-05-05 11:49 43.44705 39.94292 83 ft 6 kts 333°
2026-05-05 11:50 43.44739 39.94270 83 ft 5 kts 335°
2026-05-05 11:50 43.44760 39.94256 81 ft 4 kts 335°
2026-05-05 11:50 43.44765 39.94253 80 ft 0 kts 334°